Location: ?????
(33.6267°N, 35.4675°E)
Time: 05:02:36
(UTC+00:00)

NOSS 3-1 (A) - Pass Details

Date: 12 November 2019
Orbit: 769 x 1443 km, 63.4° (Epoch: 01 December)

Event Time Altitude Azimuth Distance (km) Brightness Sun altitude
Rises 16:41:45 0° 231° (SW) 3,252 7.1 -26.0°
Reaches altitude 10° 16:44:11 10° 239° (WSW) 2,362 6.3 -26.5°
Maximum altitude 16:49:13 40° 308° (NW) 1,242 4.3 -27.5°
Enters shadow 16:52:20 23° 2° (N) 1,813 4.8 -28.2°
